Location: Holkham
(52.9500°N, 0.8167°E)
Time: 06:16:07
(UTC+00:00)

Cosmos 1315 Rocket - Pass Details

Date: 19 May 2025
Orbit: 498 x 525 km, 81.2° (Epoch: 18 June)

Event Time Altitude Azimuth Distance (km) Brightness Sun altitude
Exits shadow 22:29:58 10° 217° (SW) 1,762 5.1 -14.9°
Maximum altitude 22:33:39 42° 289° (WNW) 766 3.8 -15.1°
Drops below altitude 10° 22:37:23 10° 2° (N) 1,775 6.6 -15.2°
Sets 22:39:37 0° 9° (N) 2,666 7.5 -15.3°
